Location: Beekmeers
(50.8953°N, 3.6968°E)
Time: 02:44:47
(UTC+00:00)

Cosmos 2369 - Pass Details

Date: 23 May 2024
Orbit: 837 x 856 km, 71.0° (Epoch: 21 June)

Event Time Altitude Azimuth Distance (km) Brightness Sun altitude
Rises 01:15:14 0° 325° (NW) 3,428 7.3 -15.6°
Reaches altitude 10° 01:17:53 10° 316° (NW) 2,491 6.4 -15.4°
Maximum altitude 01:22:56 34° 254° (WSW) 1,391 4.5 -15.1°
Enters shadow 01:25:36 22° 209° (SSW) 1,767 4.7 -14.9°
